TimeEST,TemperatureF,Dew PointF,Humidity,Sea Level PressureIn,VisibilityMPH,Wind Direction,Wind SpeedMPH,Gust SpeedMPH,PrecipitationIn,Events,Conditions,WindDirDegrees,DateUTC
12:29 AM,30.2,26.6,86,29.91,0.8,WSW,13.8,-,0.00,Snow,Snow,250,2012-12-23 05:29:00
12:45 AM,28.4,26.6,93,29.91,1.0,West,12.7,20.7,0.01,Snow,Light Snow,260,2012-12-23 05:45:00
12:54 AM,28.9,27.0,92,29.94,1.0,West,12.7,-,0.01,Snow,Light Snow,260,2012-12-23 05:54:00
1:09 AM,28.4,26.6,93,29.90,0.8,WSW,13.8,-,0.00,Snow,Light Snow,250,2012-12-23 06:09:00
1:26 AM,28.4,26.6,93,29.90,1.0,WSW,15.0,-,0.00,Snow,Light Snow,250,2012-12-23 06:26:00
1:54 AM,30.0,27.0,88,29.92,1.8,WSW,11.5,-,0.01,Snow,Light Snow,250,2012-12-23 06:54:00
2:08 AM,30.2,26.6,86,29.90,6.0,WSW,11.5,-,0.00,Snow,Light Snow,250,2012-12-23 07:08:00
2:16 AM,30.2,24.8,80,29.90,8.0,WSW,15.0,20.7,0.00,Snow,Light Snow,250,2012-12-23 07:16:00
2:54 AM,30.9,21.0,67,29.92,9.0,West,13.8,20.7,0.00,Snow,Light Snow,260,2012-12-23 07:54:00
3:54 AM,32.0,21.9,66,29.91,9.0,WNW,13.8,-,0.00,Snow,Light Snow,290,2012-12-23 08:54:00
4:54 AM,32.0,23.0,69,29.88,10.0,West,10.4,-,0.00,,Overcast,260,2012-12-23 09:54:00
5:54 AM,32.0,24.1,73,29.87,10.0,West,12.7,-,N/A,,Overcast,260,2012-12-23 10:54:00
6:11 AM,33.8,26.6,75,29.85,10.0,West,12.7,19.6,0.00,Snow,Light Snow,260,2012-12-23 11:11:00
6:54 AM,33.1,26.1,75,29.87,10.0,SW,18.4,29.9,0.00,,Overcast,230,2012-12-23 11:54:00
7:54 AM,30.9,24.1,76,29.87,10.0,SW,18.4,-,N/A,,Mostly Cloudy,220,2012-12-23 12:54:00
8:54 AM,30.0,21.9,72,29.88,10.0,SW,15.0,-,N/A,,Overcast,220,2012-12-23 13:54:00
9:54 AM,30.0,21.9,72,29.88,10.0,SW,11.5,-,N/A,,Mostly Cloudy,220,2012-12-23 14:54:00
10:54 AM,30.9,24.1,76,29.87,10.0,SW,12.7,-,N/A,,Mostly Cloudy,230,2012-12-23 15:54:00
11:54 AM,32.0,26.1,79,29.83,10.0,SW,12.7,-,N/A,,Mostly Cloudy,230,2012-12-23 16:54:00
12:54 PM,34.0,27.0,75,29.82,10.0,WSW,17.3,25.3,N/A,,Mostly Cloudy,250,2012-12-23 17:54:00
1:46 PM,32.0,24.8,75,29.80,10.0,WNW,13.8,-,N/A,,Mostly Cloudy,300,2012-12-23 18:46:00
1:54 PM,32.0,24.1,73,29.83,10.0,West,17.3,25.3,N/A,,Mostly Cloudy,280,2012-12-23 18:54:00
2:18 PM,33.8,23.0,65,29.80,10.0,West,13.8,-,N/A,,Mostly Cloudy,260,2012-12-23 19:18:00
2:54 PM,34.0,23.0,64,29.84,10.0,West,11.5,19.6,N/A,,Mostly Cloudy,260,2012-12-23 19:54:00
3:54 PM,33.1,23.0,66,29.86,10.0,WSW,12.7,19.6,N/A,,Mostly Cloudy,250,2012-12-23 20:54:00
4:54 PM,33.1,24.1,70,29.87,10.0,WSW,15.0,-,N/A,,Overcast,250,2012-12-23 21:54:00
5:54 PM,34.0,25.0,70,29.89,10.0,West,13.8,-,0.00,Snow,Light Snow,260,2012-12-23 22:54:00
6:54 PM,33.1,25.0,72,29.92,10.0,West,9.2,19.6,0.00,,Overcast,260,2012-12-23 23:54:00
7:54 PM,33.1,21.9,64,29.95,10.0,West,15.0,20.7,N/A,,Overcast,280,2012-12-24 00:54:00
8:54 PM,30.9,21.0,67,29.98,10.0,WNW,16.1,-,N/A,,Overcast,290,2012-12-24 01:54:00
9:16 PM,30.2,21.2,69,29.96,10.0,NW,10.4,-,N/A,,Overcast,310,2012-12-24 02:16:00
9:37 PM,30.2,21.2,69,29.96,10.0,NW,8.1,-,N/A,,Overcast,310,2012-12-24 02:37:00
9:48 PM,30.2,21.2,69,29.97,10.0,NW,10.4,-,N/A,,Overcast,320,2012-12-24 02:48:00
9:54 PM,30.0,21.0,69,30.00,10.0,WNW,12.7,-,N/A,,Overcast,300,2012-12-24 02:54:00
10:54 PM,28.9,19.9,69,30.02,10.0,NW,9.2,-,N/A,,Overcast,320,2012-12-24 03:54:00
11:54 PM,28.9,19.9,69,30.02,10.0,WNW,5.8,-,0.00,,Overcast,290,2012-12-24 04:54:00